Temperature
21 22 23 24 24 24 23 22 21 22 22 22 22 21 22 23 22 22 22 22 22 22 22 22 22 21 21 21 21 20 20 19 19 19 18 18 18 18 18 17 17 17 17 17
21 22 23 23 24 24 24 24 23 22 22 22 22 22 22 22 22 22 22 22 22 22 22 22 22 21 21 21 21 20 20 20 19 19 18 18 18 18 17 17 17 17 17 16
18 20 21 21 23 24 24 24 23 22 21 21 21 21 21 22 22 22 22 22 22 22 22 21 21 21 21 21 20 20 20 19 19 18 18 18 18 17 17 17 17 16 16 16
17 19 20 20 21 23 22 22 21 21 21 21 20 21 22 22 22 22 21 21 21 21 21 21 21 20 20 20 20 20 19 19 19 18 18 17 17 17 17 16 16 16 16 16
16 17 19 20 22 22 21 20 20 20 20 20 20 20 20 21 21 21 21 21 21 21 21 21 20 20 20 19 19 19 19 18 18 18 17 17 17 16 16 16 16 16 15 15
16 18 18 19 21 22 21 19 19 19 19 19 19 18 18 20 20 20 20 20 21 20 20 20 20 20 19 19 18 18 18 18 17 17 17 17 16 16 16 16 16 15 15 15
16 17 17 19 21 21 19 18 19 19 19 19 18 18 19 19 19 19 20 20 20 20 20 19 19 19 18 18 18 18 17 17 17 17 16 16 16 16 16 16 15 15 15 15
15 16 17 18 19 18 17 18 19 19 19 19 19 18 18 19 19 19 19 19 19 19 19 18 18 18 18 18 17 17 17 17 16 16 16 16 15 15 15 15 15 15 15 14
15 15 17 18 18 18 19 18 18 18 19 19 18 18 18 18 18 18 18 18 18 18 18 18 17 17 17 17 17 17 16 16 16 15 15 15 15 15 15 14 14 14 14 14
15 16 17 17 18 18 18 18 18 18 18 18 18 17 17 17 17 17 17 17 17 17 17 17 17 17 17 17 16 16 16 15 15 15 15 15 14 14 14 14 14 14 13 13
14 15 16 17 17 17 17 18 18 18 18 18 18 17 17 16 16 16 16 16 16 16 17 16 16 16 16 16 16 15 15 15 15 15 14 14 14 14 14 14 14 13 13 13
14 15 14 15 17 17 17 17 17 17 17 17 17 16 16 16 16 16 16 16 16 16 16 16 15 15 15 15 15 15 14 14 14 14 14 14 13 13 13 13 13 13 13 13
16 16 16 16 16 17 16 16 16 17 16 16 16 16 16 16 16 15 15 15 15 15 15 15 15 14 14 14 14 14 14 14 13 13 13 13 13 13 12 12 12 12 12 12
16 16 15 16 16 16 16 16 16 16 16 16 16 16 16 15 15 15 15 15 15 15 15 14 14 14 14 14 14 14 13 13 13 13 13 13 12 12 12 12 12 12 12 12
16 16 15 15 15 16 15 15 15 15 15 15 15 15 15 15 14 14 14 14 14 14 14 14 14 13 13 13 13 13 13 13 13 12 12 12 12 12 12 12 12 12 11 11
15 15 15 15 15 15 15 15 15 15 15 14 14 14 14 14 14 14 14 13 13 13 13 13 13 13 13 13 13 13 12 12 12 12 12 12 12 11 11 11 11 11 11 11
15 14 14 14 14 14 14 14 14 14 14 14 14 14 14 13 13 13 13 13 13 13 13 13 13 13 13 12 13 12 12 12 12 12 11 11 11 11 11 11 11 11 11 11
15 15 15 15 14 14 14 14 14 14 14 14 14 13 13 13 13 13 13 13 13 13 13 12 12 12 12 12 12 12 12 12 11 11 11 11 11 11 11 11 11 10 10 10
14 14 14 14 14 14 14 14 14 14 13 13 13 13 13 13 13 13 13 13 12 12 12 12 12 12 12 12 12 12 12 11 11 11 11 11 11 11 11 11 10 10 10 10
14 14 14 14 14 14 14 13 13 13 13 13 13 13 13 13 13 12 12 12 12 12 12 12 12 12 12 12 12 12 11 11 11 11 11 11 11 11 11 10 10 10 10 10
13 14 14 14 14 14 14 13 13 13 13 13 13 13 12 12 12 12 12 12 12 12 12 12 12 12 12 12 12 11 11 11 11 11 11 11 10 10 10 10 10 10 10 9
13 13 13 13 13 13 13 13 13 13 13 13 12 12 12 12 12 12 12 12 12 12 12 12 12 12 12 12 11 11 11 11 11 11 11 10 10 10 10 10 10 9 9 9
13 13 13 13 13 13 13 13 13 13 12 12 12 12 12 12 12 12 12 12 12 12 12 12 12 11 11 11 11 11 11 11 11 10 10 10 10 10 10 9 9 9 9 9
13 13 13 13 12 12 12 12 12 12 12 12 12 12 12 12 12 12 12 12 12 12 11 11 11 11 11 11 11 11 11 11 10 10 10 10 10 10 9 9 9 9 9 8
12 12 12 12 12 12 12 12 12 12 12 12 12 12 12 12 12 12 12 12 12 11 11 11 11 11 11 11 11 10 10 10 10 10 10 10 9 9 9 9 9 9 8 8
12 12 12 12 12 12 12 12 12 12 12 12 12 12 12 12 12 12 11 11 11 11 11 11 11 11 11 10 10 10 10 10 10 10 10 9 9 9 9 9 8 8 8 8
12 12 12 12 12 12 12 12 12 12 11 11 12 12 12 12 11 11 11 11 11 11 11 11 10 10 10 10 10 10 10 10 10 9 9 9 9 9 8 8 8 8 8 7
Wind_Speed
6 7 4 5 7 5 4 7 8 8 9 10 10 9 8 8 8 9 8 8 9 9 9 9 9 9 9 9 9 9 9 8 8 7 7 6 5 5 5 5 5 4 4 4
4 5 4 6 7 7 7 6 6 5 6 6 6 5 6 8 10 9 9 9 8 9 9 10 10 10 9 8 9 9 9 9 8 7 6 6 6 5 5 4 4 4 5 5
4 6 4 6 6 5 5 4 5 7 7 5 4 5 8 8 10 10 10 8 8 8 8 8 8 8 9 9 8 8 8 8 8 8 7 7 7 6 6 6 5 4 5 5
1 2 6 9 6 2 1 1 1 2 4 6 5 3 3 6 8 8 8 8 7 6 6 5 6 5 6 7 7 8 8 8 8 8 7 7 6 6 6 5 5 5 4 4
3 3 7 7 5 2 2 3 1 3 4 5 7 6 3 1 6 7 8 7 6 6 6 5 6 5 6 6 7 7 7 7 7 8 8 7 7 6 5 5 4 4 3 4
3 3 6 6 6 3 4 1 2 4 6 6 6 3 3 3 4 6 6 5 5 5 5 5 4 6 6 6 6 6 6 6 7 7 8 8 8 6 4 4 5 4 3 3
4 5 7 6 6 3 2 5 2 2 5 5 4 5 5 4 3 5 6 5 6 6 6 5 5 7 6 5 6 5 5 4 4 5 6 6 5 5 4 4 4 3 3 2
3 4 7 4 3 2 4 3 1 1 2 3 4 4 5 5 4 5 5 5 6 6 4 3 5 6 5 5 5 5 5 4 4 4 4 4 4 4 4 4 4 2 2 1
5 6 6 2 1 2 2 2 1 0 1 4 4 4 4 4 4 4 5 5 5 6 5 3 3 4 5 3 3 4 4 4 4 3 3 4 4 4 4 4 4 3 2 2
1 3 2 1 1 2 1 1 0 2 3 4 4 4 4 5 3 3 4 4 4 6 5 3 2 3 4 3 4 5 5 4 4 4 4 3 3 4 4 4 4 3 2 2
3 4 4 4 2 1 2 3 3 3 3 4 7 5 5 4 3 3 3 3 4 5 5 4 4 4 4 4 5 5 4 4 4 4 4 3 2 2 4 4 5 6 4 4
6 7 3 5 3 1 1 1 2 4 3 3 6 6 4 3 3 4 4 3 3 5 6 5 5 4 3 4 6 6 4 4 3 3 3 3 3 2 3 1 2 4 5 4
6 6 4 5 4 1 1 1 2 3 3 3 3 5 5 3 3 4 4 3 4 5 5 5 5 4 3 3 5 6 5 4 3 3 3 3 3 4 1 2 2 0 1 3
6 3 3 3 3 2 2 2 2 3 3 3 4 4 5 4 4 4 3 3 4 5 5 5 5 4 3 3 5 5 4 3 4 3 3 3 3 3 3 3 1 1 2 0
7 5 5 3 2 2 3 3 4 3 2 3 4 5 6 6 4 3 2 3 5 6 5 5 5 4 3 4 5 4 4 3 3 3 3 3 3 3 3 3 2 1 1 1
3 2 3 4 4 3 3 4 4 3 3 4 4 4 5 5 4 3 3 4 5 5 4 4 4 3 3 4 4 3 3 4 4 3 3 2 2 2 2 3 2 2 1 1
3 3 3 3 4 4 4 5 5 5 5 5 5 5 6 5 4 3 2 3 5 5 4 4 4 4 4 4 4 3 3 3 4 4 3 3 2 2 2 3 3 3 2 2
3 5 6 6 5 5 5 5 5 5 5 5 6 6 6 6 5 4 3 4 5 3 2 3 4 4 4 4 4 3 3 3 3 3 3 2 2 2 2 2 3 3 2 2
1 2 2 3 5 6 5 5 4 4 5 5 6 6 5 5 5 5 5 6 6 4 3 3 4 5 4 3 3 3 3 3 2 2 2 3 2 2 2 3 3 3 3 3
2 2 2 2 3 5 5 5 5 4 4 5 5 5 5 5 6 6 5 4 3 4 4 4 4 4 3 3 3 3 3 3 3 2 2 2 1 1 2 2 3 3 3 3
1 2 3 3 3 4 6 6 5 4 4 5 5 6 6 5 6 5 5 3 2 3 4 5 4 3 2 2 3 3 3 3 3 2 2 1 1 1 2 2 2 2 2 2
1 2 3 4 4 4 4 5 5 4 4 5 5 5 6 5 5 4 4 3 3 4 4 3 3 3 3 3 2 3 3 4 3 2 2 2 2 2 2 2 1 1 1 1
1 2 3 4 5 5 4 5 5 5 5 5 5 5 5 5 4 5 3 3 3 4 4 3 3 4 4 3 3 3 3 3 3 2 2 2 2 2 2 2 2 2 2 2
3 3 4 5 6 6 5 4 4 4 4 4 5 5 5 4 2 2 3 4 5 5 4 4 4 4 4 3 3 3 3 2 2 2 2 2 2 2 2 2 2 2 2 3
4 5 5 5 5 4 3 4 4 4 4 3 3 3 3 4 4 3 4 5 6 6 3 3 4 3 3 2 3 3 2 2 2 3 3 2 2 2 2 2 3 3 2 2
3 3 2 3 3 3 3 4 4 4 4 3 2 2 3 3 3 3 4 4 6 5 3 2 2 3 3 3 3 3 2 2 3 3 3 3 3 3 3 3 3 2 2 2
3 3 2 2 2 3 3 4 4 3 3 4 3 3 3 4 4 4 4 4 4 4 3 3 2 3 3 3 3 3 2 3 3 3 3 3 3 3 3 3 3 2 2 2
Wind_Direction
234 245 252 267 271 261 227 202 203 225 215 221 206 184 173 161 146 140 137 144 149 154 161 161 164 170 174 176 176 174 172 178 188 189 184 181 181 185 185 187 193 195 196 204
312 301 301 288 277 257 244 227 214 212 245 227 196 163 164 162 156 152 152 157 156 152 157 163 168 171 171 174 176 172 175 185 187 180 180 183 188 185 184 193 199 193 202 209
279 299 337 273 248 250 255 251 204 211 221 178 165 166 175 171 164 162 164 161 156 155 157 165 171 170 173 176 171 171 179 185 185 185 187 191 190 183 190 196 199 204 211 209
225 356 249 247 260 229 145 334 342 173 180 166 165 166 164 161 156 160 158 148 146 146 144 147 154 163 171 167 169 176 182 186 184 182 188 188 184 189 194 192 196 203 208 213
159 217 271 288 297 278 141 328 350 126 129 121 117 78 39 122 141 148 148 146 148 151 146 141 147 155 158 160 164 174 184 187 187 184 184 184 188 193 192 187 194 202 201 204
168 196 236 256 295 300 104 334 311 123 127 126 112 133 226 197 136 127 129 133 138 136 125 131 144 143 148 158 163 181 190 191 188 182 181 189 193 194 193 186 192 194 198 204
190 219 252 273 309 20 130 223 254 138 145 144 169 194 192 167 139 133 133 129 128 126 125 141 143 137 146 162 180 190 187 181 178 181 184 185 187 187 180 179 177 180 180 195
183 208 250 305 25 105 220 234 186 110 132 123 133 127 140 138 132 135 127 125 131 126 122 129 138 139 145 174 188 177 169 166 173 180 182 176 169 174 167 165 164 169 162 155
201 222 252 272 190 225 185 161 182 141 134 126 122 133 139 131 126 130 139 136 136 133 128 125 135 142 152 177 165 153 150 157 163 159 159 162 163 163 154 154 162 170 166 175
284 267 288 332 4 5 57 107 114 132 127 117 124 123 121 122 123 128 127 134 137 135 133 131 132 130 140 138 131 129 137 152 156 151 153 150 156 163 160 165 166 164 173 187
266 279 343 343 342 40 28 38 59 66 94 118 120 119 122 123 135 139 129 126 134 143 139 129 114 111 116 122 121 122 129 139 143 145 143 138 137 159 169 183 181 178 193 196
242 242 218 255 256 160 78 38 109 96 63 89 121 128 123 129 143 143 138 126 128 127 124 120 116 114 115 120 122 124 126 134 146 150 146 141 129 82 43 112 161 187 197 194
236 254 240 250 252 212 175 203 156 132 130 118 116 130 129 135 138 128 130 136 140 136 132 126 122 119 118 119 122 126 139 147 150 149 145 142 146 147 141 11 25 118 203 199
253 248 259 255 238 192 169 157 122 112 139 143 148 146 136 125 116 121 129 147 142 133 129 127 125 127 132 129 124 125 133 138 141 150 152 155 161 169 170 173 174 351 357 335
255 231 213 208 179 139 135 125 114 115 125 130 134 133 130 130 129 128 113 124 128 126 128 131 132 137 135 130 129 131 133 139 138 139 147 153 150 147 148 148 148 146 75 358
258 216 163 161 163 160 145 140 142 160 160 145 131 130 132 132 131 130 114 124 132 139 146 142 147 151 142 139 136 135 138 137 135 136 141 143 144 151 157 159 155 155 168 211
213 210 186 179 177 167 167 170 168 167 160 155 153 144 132 127 130 135 128 143 149 152 157 153 156 153 148 150 146 147 146 146 137 138 151 157 158 170 174 167 169 179 200 199
200 187 182 179 178 170 165 158 153 156 165 171 160 146 140 144 154 155 152 146 131 128 156 171 166 157 155 159 155 152 147 148 156 164 162 158 168 179 178 177 182 185 194 194
108 156 172 173 169 162 161 155 150 153 154 152 147 152 159 160 159 155 145 139 139 151 202 190 151 142 157 173 155 145 145 145 147 153 164 167 170 182 186 185 184 180 176 177
102 111 134 149 156 148 147 146 141 138 136 136 138 142 144 149 146 143 143 153 178 189 186 165 151 156 169 173 145 137 145 149 149 146 144 150 160 181 179 172 169 172 175 180
146 136 148 156 150 150 154 152 149 150 154 151 150 150 150 151 147 142 140 158 223 179 156 154 155 165 171 163 143 140 140 140 139 141 141 142 155 155 151 155 158 159 162 160
168 166 167 157 145 149 157 152 151 158 157 150 144 144 141 144 151 151 160 182 191 166 154 161 164 161 155 139 138 143 141 138 147 161 166 161 163 162 153 152 160 158 150 148
96 130 136 140 143 146 143 141 145 149 148 148 149 149 153 162 161 153 170 199 166 163 159 161 157 151 147 135 133 137 142 143 149 162 165 165 167 169 168 167 160 151 150 152
96 99 110 117 120 121 121 129 135 139 143 147 150 155 152 147 154 185 172 160 154 149 152 159 158 155 142 132 130 135 143 146 147 147 142 139 137 134 137 143 143 134 129 122
99 99 105 115 119 125 131 133 123 122 125 126 132 145 148 150 157 163 141 137 136 133 129 141 155 153 132 123 127 131 133 135 132 128 126 123 129 128 125 125 128 130 131 127
99 111 120 130 139 138 134 130 132 137 133 130 129 134 136 131 129 126 124 129 128 124 119 117 120 122 120 119 120 121 122 115 107 113 121 123 123 122 122 124 123 123 126 130
80 86 87 77 90 123 127 126 133 140 141 140 139 137 134 125 116 116 120 120 122 122 122 119 118 120 120 120 116 116 115 115 115 116 120 123 124 127 134 133 128 124 126 135
Height
1471 1466 1463 1463 1463 1462 1468 1473 1480 1475 1470 1463 1459 1459 1460 1461 1463 1465 1467 1469 1471 1473 1476 1479 1483 1487 1490 1492 1495 1497 1499 1501 1502 1505 1507 1509 1510 1511 1512 1513 1514 1515 1516 1516
1471 1463 1462 1462 1458 1457 1458 1458 1462 1463 1464 1455 1454 1456 1459 1460 1461 1463 1466 1468 1469 1472 1474 1477 1480 1483 1486 1489 1492 1494 1496 1497 1499 1501 1503 1504 1506 1507 1508 1510 1511 1511 1512 1512
1482 1469 1466 1471 1457 1454 1454 1452 1455 1461 1458 1453 1455 1456 1457 1458 1460 1462 1465 1467 1469 1471 1473 1475 1478 1481 1483 1486 1488 1490 1492 1494 1496 1497 1499 1501 1502 1504 1505 1506 1507 1507 1508 1508
1483 1477 1484 1466 1448 1446 1450 1451 1449 1449 1449 1449 1452 1455 1457 1458 1459 1461 1463 1465 1467 1470 1472 1474 1476 1479 1481 1483 1486 1487 1489 1490 1492 1493 1495 1497 1498 1500 1501 1502 1503 1503 1504 1504
1485 1485 1476 1459 1448 1446 1451 1455 1449 1449 1450 1451 1452 1455 1458 1458 1458 1460 1461 1463 1465 1468 1469 1471 1473 1476 1478 1480 1482 1484 1485 1487 1488 1490 1491 1493 1494 1496 1497 1498 1499 1500 1500 1501
1480 1482 1481 1462 1446 1442 1447 1459 1450 1447 1449 1450 1451 1460 1460 1458 1458 1459 1461 1462 1463 1465 1467 1469 1470 1473 1475 1476 1478 1480 1481 1483 1484 1486 1487 1489 1490 1492 1493 1494 1495 1496 1496 1497
1476 1478 1469 1453 1445 1442 1460 1461 1451 1447 1447 1448 1450 1453 1455 1456 1457 1458 1459 1460 1461 1463 1464 1466 1468 1470 1471 1473 1474 1476 1478 1479 1481 1482 1484 1485 1487 1488 1489 1490 1491 1492 1492 1493
1475 1477 1471 1449 1446 1451 1454 1449 1449 1447 1447 1447 1447 1449 1452 1453 1455 1457 1458 1458 1459 1461 1462 1464 1466 1467 1468 1470 1471 1473 1474 1475 1476 1478 1480 1481 1483 1484 1485 1487 1487 1488 1488 1489
1466 1464 1452 1448 1447 1448 1447 1448 1448 1447 1447 1447 1447 1449 1450 1452 1454 1455 1456 1457 1458 1459 1460 1462 1463 1464 1465 1466 1468 1469 1470 1471 1472 1475 1476 1478 1479 1480 1481 1483 1484 1484 1485 1484
1458 1453 1449 1447 1446 1446 1446 1446 1446 1447 1447 1446 1446 1448 1449 1450 1452 1454 1455 1456 1457 1457 1458 1459 1460 1461 1462 1463 1465 1465 1466 1467 1469 1471 1473 1474 1475 1476 1477 1478 1480 1480 1481 1481
1457 1451 1448 1446 1446 1445 1445 1445 1445 1445 1446 1445 1446 1448 1449 1449 1451 1453 1453 1454 1454 1455 1455 1456 1458 1459 1460 1461 1462 1462 1464 1465 1466 1468 1470 1471 1472 1474 1475 1476 1477 1478 1479 1479
1454 1448 1448 1446 1444 1444 1444 1444 1444 1445 1446 1446 1447 1448 1448 1449 1450 1451 1452 1453 1453 1453 1454 1455 1457 1457 1458 1459 1459 1460 1461 1463 1464 1466 1467 1469 1470 1472 1474 1475 1476 1477 1477 1477
1445 1444 1444 1442 1442 1443 1443 1443 1443 1444 1444 1446 1447 1447 1448 1448 1449 1450 1451 1452 1451 1452 1453 1454 1455 1456 1457 1458 1458 1459 1460 1462 1463 1465 1466 1468 1469 1471 1471 1473 1474 1474 1475 1476
1442 1442 1440 1440 1440 1440 1441 1441 1441 1441 1443 1444 1445 1445 1446 1447 1448 1449 1450 1450 1451 1452 1453 1454 1455 1455 1456 1457 1458 1458 1460 1462 1463 1464 1465 1467 1468 1469 1470 1471 1471 1472 1473 1474
1437 1437 1436 1436 1437 1438 1439 1439 1439 1439 1440 1442 1444 1444 1445 1446 1447 1448 1449 1450 1450 1451 1452 1453 1454 1454 1455 1457 1457 1458 1459 1461 1462 1464 1465 1466 1467 1468 1469 1469 1470 1470 1471 1472
1433 1433 1433 1433 1434 1435 1436 1437 1437 1438 1438 1440 1442 1443 1444 1446 1447 1448 1449 1450 1450 1450 1451 1452 1453 1454 1455 1456 1457 1458 1459 1461 1462 1463 1464 1465 1465 1466 1467 1468 1468 1469 1469 1470
1430 1430 1430 1430 1431 1432 1434 1435 1436 1436 1437 1439 1440 1442 1443 1445 1446 1447 1448 1449 1450 1450 1451 1451 1452 1454 1455 1456 1457 1458 1460 1461 1462 1463 1463 1464 1464 1465 1466 1466 1466 1467 1467 1468
1426 1426 1426 1427 1428 1430 1432 1433 1434 1435 1437 1438 1440 1441 1442 1444 1445 1446 1448 1449 1450 1451 1451 1452 1453 1454 1455 1456 1457 1458 1460 1461 1462 1462 1463 1463 1464 1464 1464 1464 1465 1465 1465 1466
1424 1425 1425 1426 1427 1428 1429 1431 1432 1434 1435 1437 1438 1440 1441 1443 1445 1446 1448 1448 1449 1450 1451 1452 1453 1454 1455 1456 1457 1458 1459 1460 1461 1462 1462 1462 1462 1462 1462 1462 1463 1463 1464 1464
1423 1423 1424 1425 1426 1427 1429 1430 1432 1433 1435 1437 1438 1440 1441 1443 1444 1446 1447 1448 1448 1449 1451 1452 1453 1454 1455 1456 1456 1457 1458 1460 1460 1461 1461 1461 1461 1461 1461 1461 1461 1461 1462 1462
1421 1422 1423 1424 1425 1426 1428 1430 1431 1433 1435 1436 1438 1439 1440 1441 1443 1445 1446 1447 1449 1449 1451 1452 1453 1453 1454 1455 1456 1457 1458 1459 1460 1460 1460 1461 1461 1461 1460 1460 1460 1460 1460 1460
1419 1420 1421 1423 1424 1426 1427 1429 1430 1432 1434 1435 1437 1438 1439 1441 1443 1444 1446 1447 1448 1449 1450 1451 1452 1453 1453 1454 1455 1456 1457 1458 1459 1460 1460 1460 1460 1460 1459 1459 1459 1458 1458 1458
1419 1419 1421 1422 1423 1425 1427 1429 1430 1431 1433 1434 1436 1438 1439 1441 1443 1443 1445 1447 1448 1449 1449 1450 1451 1452 1453 1454 1454 1455 1456 1457 1458 1459 1459 1459 1459 1459 1459 1458 1458 1458 1457 1457
1420 1420 1421 1422 1423 1425 1426 1428 1430 1432 1433 1435 1436 1438 1440 1441 1443 1444 1445 1446 1447 1448 1449 1450 1450 1451 1452 1453 1454 1455 1456 1457 1457 1458 1458 1458 1458 1458 1458 1457 1457 1456 1456 1455
1421 1422 1423 1423 1424 1426 1427 1429 1431 1432 1434 1436 1437 1439 1440 1441 1443 1444 1445 1446 1447 1448 1448 1449 1450 1451 1452 1453 1454 1455 1455 1456 1457 1457 1457 1457 1457 1457 1457 1456 1455 1455 1454 1453
1423 1424 1424 1425 1426 1427 1428 1429 1431 1433 1434 1436 1437 1439 1440 1442 1443 1444 1445 1446 1447 1448 1448 1449 1450 1451 1452 1453 1454 1455 1455 1456 1456 1456 1456 1456 1456 1455 1455 1454 1453 1453 1452 1451
1425 1426 1426 1427 1428 1429 1430 1431 1432 1433 1435 1436 1438 1439 1441 1442 1443 1444 1445 1446 1447 1448 1449 1450 1451 1451 1452 1453 1454 1454 1454 1455 1455 1455 1455 1454 1454 1454 1453 1452 1451 1450 1449 1449